DW7980 Weather Reports


Display with metric or nautical units.
time (UTC)temp
F
wind
direction
speed
MPH
gust
MPH
rain 1hr
in
rain 24hr
in
rain mn
in
humidity
%
barometer
mb
20260831203538 82 292 1.0 5.0 0.00 0.00 0.00 46 1009.1
20260831203116 82 55 2.0 5.0 0.00 0.00 0.00 48 1009.1
20260831202538 81 159 1.0 7.0 0.00 0.00 0.00 47 1009.1
20260831202039 81 161 1.0 7.0 0.00 0.00 0.00 47 1009.1
20260831201554 82 107 0.0 4.0 0.00 0.00 0.00 45 1009.2
20260831201038 82 98 1.0 5.0 0.00 0.00 0.00 46 1009.1
20260831200539 81 31 1.0 5.0 0.00 0.00 0.00 48 1009.2
20260831200057 80 13 1.0 3.0 0.00 0.00 0.00 46 1009.2
20260831195539 79 94 0.0 4.0 0.00 0.00 0.00 48 1009.3
20260831195038 80 78 1.0 6.0 0.00 0.00 0.00 50 1009.4
20260831194611 79 93 1.0 6.0 0.00 0.00 0.00 51 1009.5
20260831194039 79 211 0.0 4.0 0.00 0.00 0.00 49 1009.6
20260831193541 78 109 0.0 4.0 0.00 0.00 0.00 46 1009.7
20260831193102 79 157 2.0 4.0 0.00 0.00 0.00 45 1009.7
20260831192538 79 292 2.0 4.0 0.00 0.00 0.00 45 1009.8
20260831192041 78 40 1.0 4.0 0.00 0.00 0.00 49 1009.8
20260831191600 77 0 1.0 4.0 0.00 0.00 0.00 48 1009.9
20260831191041 77 108 2.0 5.0 0.00 0.00 0.00 49 1010.0
20260831190540 77 193 3.0 5.0 0.00 0.00 0.00 50 1010.1
20260831190132 76 86 0.0 4.0 0.00 0.00 0.00 52 1010.2
20260831185541 75 117 1.0 4.0 0.00 0.00 0.00 55 1010.2
20260831185043 74 184 1.0 3.0 0.00 0.00 0.00 53 1010.3
20260831184553 73 0 0.0 4.0 0.00 0.00 0.00 55 1010.3
20260831184041 73 188 0.0 4.0 0.00 0.00 0.00 56 1010.4
20260831183545 73 209 1.0 3.0 0.00 0.00 0.00 56 1010.6
20260831183103 73 197 1.0 4.0 0.00 0.00 0.00 55 1010.7
20260831182543 73 0 1.0 4.0 0.00 0.00 0.00 57 1010.8
20260831182042 73 0 1.0 4.0 0.00 0.00 0.00 59 1010.9
20260831181603 72 68 1.0 4.0 0.00 0.00 0.00 62 1010.9
20260831181040 71 186 1.0 4.0 0.00 0.00 0.00 59 1011.0
20260831180538 70 0 1.0 4.0 0.00 0.00 0.00 62 1011.1
20260831175538 68 161 1.0 4.0 0.00 0.00 0.00 66 1011.0
20260831175038 68 192 0.0 3.0 0.00 0.00 0.00 67 1011.1
20260831174604 67 191 1.0 4.0 0.00 0.00 0.00 67 1011.2
20260831174041 67 192 2.0 5.0 0.00 0.00 0.00 67 1011.2
20260831173541 66 0 2.0 5.0 0.00 0.00 0.00 69 1011.3
20260831173108 66 194 1.0 5.0 0.00 0.00 0.00 69 1011.3
20260831172542 65 146 2.0 5.0 0.00 0.00 0.00 69 1011.3
20260831172039 66 179 1.0 5.0 0.00 0.00 0.00 70 1011.4
20260831171558 65 178 1.0 5.0 0.00 0.00 0.00 71 1011.4
20260831171039 65 171 1.0 4.0 0.00 0.00 0.00 72 1011.5
20260831170539 64 0 1.0 5.0 0.00 0.00 0.00 73 1011.4
20260831170110 63 170 1.0 5.0 0.00 0.00 0.00 75 1011.5
20260831165538 62 0 1.0 4.0 0.00 0.00 0.00 77 1011.5
20260831165041 62 168 1.0 4.0 0.00 0.00 0.00 77 1011.5
20260831164605 62 0 0.0 4.0 0.00 0.00 0.00 77 1011.5
20260831164039 61 160 1.0 3.0 0.00 0.00 0.00 78 1011.6
20260831163539 60 153 0.0 3.0 0.00 0.00 0.00 80 1011.5
20260831163105 59 0 1.0 3.0 0.00 0.00 0.00 82 1011.5
20260831162538 58 152 1.0 3.0 0.00 0.00 0.00 83 1011.6
20260831162039 57 152 0.0 3.0 0.00 0.00 0.00 84 1011.6
20260831161608 56 111 1.0 3.0 0.00 0.00 0.00 84 1011.7
20260831161040 56 0 1.0 3.0 0.00 0.00 0.00 86 1011.8
20260831160544 55 0 0.0 0.0 0.00 0.00 0.00 87 1011.9
20260831160128 55 0 0.0 0.0 0.00 0.00 0.00 87 1011.9
20260831155539 54 0 0.0 0.0 0.00 0.00 0.00 88 1011.9
20260831155039 54 0 0.0 0.0 0.00 0.00 0.00 89 1011.9
20260831154622 53 0 0.0 0.0 0.00 0.00 0.00 89 1011.9
20260831154041 52 0 0.0 0.0 0.00 0.00 0.00 90 1011.9
20260831153539 52 0 0.0 0.0 0.00 0.00 0.00 90 1011.9
20260831153132 52 0 0.0 0.0 0.00 0.00 0.00 90 1012.0
20260831152538 51 0 0.0 0.0 0.00 0.00 0.00 90 1012.0
20260831152040 51 0 0.0 0.0 0.00 0.00 0.00 90 1012.0
20260831151606 50 0 0.0 0.0 0.00 0.00 0.00 90 1012.0
20260831151040 50 0 0.0 0.0 0.00 0.00 0.00 89 1012.1
20260831150544 50 0 0.0 0.0 0.00 0.00 0.00 90 1012.1
20260831150058 50 0 0.0 0.0 0.00 0.00 0.00 89 1012.1
20260831145538 49 0 0.0 0.0 0.00 0.00 0.00 89 1012.2
20260831145042 49 0 0.0 0.0 0.00 0.00 0.00 89 1012.3
20260831144555 49 0 0.0 0.0 0.00 0.00 0.00 89 1012.2
20260831144038 49 0 0.0 0.0 0.00 0.00 0.00 89 1012.3
20260831143539 49 0 0.0 0.0 0.00 0.00 0.00 89 1012.2
20260831143055 48 0 0.0 0.0 0.00 0.00 0.00 89 1012.2
20260831142538 48 0 0.0 0.0 0.00 0.00 0.00 88 1012.3
20260831142039 48 0 0.0 0.0 0.00 0.00 0.00 88 1012.3
20260831141604 48 0 0.0 0.0 0.00 0.00 0.00 88 1012.4
20260831141042 48 0 0.0 0.0 0.00 0.00 0.00 87 1012.3
20260831140539 48 0 0.0 0.0 0.00 0.00 0.00 88 1012.2
20260831140056 48 0 0.0 0.0 0.00 0.00 0.00 88 1012.2
20260831135539 49 0 0.0 0.0 0.00 0.00 0.00 88 1012.3
20260831135039 49 0 0.0 0.0 0.00 0.00 0.00 88 1012.3
20260831134605 49 0 0.0 0.0 0.00 0.00 0.00 87 1012.4
20260831134039 49 0 0.0 0.0 0.00 0.00 0.00 87 1012.4
20260831133538 49 0 0.0 0.0 0.00 0.00 0.00 87 1012.4
20260831133106 49 0 0.0 0.0 0.00 0.00 0.00 87 1012.3
20260831132538 49 0 0.0 0.0 0.00 0.00 0.00 87 1012.3
20260831132039 49 0 0.0 0.0 0.00 0.00 0.00 87 1012.4
20260831131606 49 0 0.0 0.0 0.00 0.00 0.00 87 1012.4
20260831131042 49 0 0.0 0.0 0.00 0.00 0.00 87 1012.5
20260831130539 49 0 0.0 0.0 0.00 0.00 0.00 87 1012.5
20260831130114 50 0 0.0 0.0 0.00 0.00 0.00 87 1012.6
20260831125539 50 0 0.0 0.0 0.00 0.00 0.00 87 1012.5
20260831125039 50 0 0.0 0.0 0.00 0.00 0.00 87 1012.7
20260831124604 50 0 0.0 0.0 0.00 0.00 0.00 87 1012.7
20260831124038 50 0 0.0 0.0 0.00 0.00 0.00 87 1012.7
20260831123539 50 0 0.0 0.0 0.00 0.00 0.00 87 1012.7
20260831123056 50 0 0.0 0.0 0.00 0.00 0.00 87 1012.8
20260831122540 50 0 0.0 0.0 0.00 0.00 0.00 87 1012.7
20260831122039 50 0 0.0 0.0 0.00 0.00 0.00 87 1012.8
20260831121600 50 0 0.0 0.0 0.00 0.00 0.00 87 1012.8
20260831121040 50 0 0.0 0.0 0.00 0.00 0.00 87 1012.8
20260831120539 51 0 0.0 0.0 0.00 0.00 0.00 87 1012.9
20260831120146 51 0 0.0 0.0 0.00 0.00 0.00 87 1012.8
20260831115542 51 0 0.0 0.0 0.00 0.00 0.00 87 1012.9
20260831115042 51 0 0.0 0.0 0.00 0.00 0.00 87 1012.9
20260831114603 51 0 0.0 0.0 0.00 0.00 0.00 86 1012.9
20260831114038 51 0 0.0 0.0 0.00 0.00 0.00 86 1012.9
20260831113539 51 0 0.0 0.0 0.00 0.00 0.00 86 1013.0
20260831113105 51 0 0.0 0.0 0.00 0.00 0.00 86 1013.1
20260831112539 51 0 0.0 0.0 0.00 0.00 0.00 86 1013.1
20260831112039 51 0 0.0 0.0 0.00 0.00 0.00 85 1013.1
20260831111601 51 0 0.0 0.0 0.00 0.00 0.00 85 1013.2
20260831111038 51 0 0.0 0.0 0.00 0.00 0.00 85 1013.2
20260831110539 51 0 0.0 0.0 0.00 0.00 0.00 85 1013.3
20260831110107 51 0 0.0 0.0 0.00 0.00 0.00 85 1013.2
20260831105538 52 0 0.0 0.0 0.00 0.00 0.00 86 1013.3
20260831105040 52 0 0.0 0.0 0.00 0.00 0.00 86 1013.2
20260831104551 52 0 0.0 0.0 0.00 0.00 0.00 85 1013.3
20260831104040 52 0 0.0 0.0 0.00 0.00 0.00 85 1013.3
20260831103541 52 0 0.0 0.0 0.00 0.00 0.00 85 1013.4
20260831103058 52 0 0.0 0.0 0.00 0.00 0.00 85 1013.4
20260831102538 52 0 0.0 0.0 0.00 0.00 0.00 85 1013.4
20260831102038 52 0 0.0 0.0 0.00 0.00 0.00 85 1013.5
20260831101606 52 0 0.0 0.0 0.00 0.00 0.00 84 1013.5
20260831101040 52 0 0.0 0.0 0.00 0.00 0.00 84 1013.5
20260831100538 53 0 0.0 0.0 0.00 0.00 0.00 84 1013.5
20260831100108 53 0 0.0 0.0 0.00 0.00 0.00 84 1013.5
20260831095538 53 0 0.0 0.0 0.00 0.00 0.00 85 1013.6
20260831095038 53 0 0.0 0.0 0.00 0.00 0.00 85 1013.6
20260831094605 53 0 0.0 0.0 0.00 0.00 0.00 84 1013.6
20260831094042 53 0 0.0 0.0 0.00 0.00 0.00 84 1013.7
20260831093541 53 0 0.0 0.0 0.00 0.00 0.00 84 1013.8
20260831093101 53 0 0.0 0.0 0.00 0.00 0.00 84 1013.9
20260831092540 53 0 0.0 0.0 0.00 0.00 0.00 83 1013.9
20260831092042 53 0 0.0 0.0 0.00 0.00 0.00 84 1013.9
20260831091603 54 0 0.0 0.0 0.00 0.00 0.00 83 1013.9
20260831091040 54 0 0.0 0.0 0.00 0.00 0.00 83 1014.0
20260831090537 54 0 0.0 0.0 0.00 0.00 0.00 83 1014.0
20260831090124 54 0 0.0 0.0 0.00 0.00 0.00 83 1014.0
20260831085540 54 0 0.0 0.0 0.00 0.00 0.00 84 1014.1
20260831085037 54 0 0.0 0.0 0.00 0.00 0.00 83 1014.1
20260831084559 54 0 0.0 0.0 0.00 0.00 0.00 83 1014.0
20260831084039 55 0 0.0 0.0 0.00 0.00 0.00 83 1014.0
20260831083539 55 0 0.0 0.0 0.00 0.00 0.00 83 1014.1
20260831083059 55 0 0.0 0.0 0.00 0.00 0.00 83 1014.2
20260831082541 55 0 0.0 0.0 0.00 0.00 0.00 82 1014.2
20260831082038 55 0 0.0 0.0 0.00 0.00 0.00 82 1014.3
20260831081600 55 0 0.0 0.0 0.00 0.00 0.00 82 1014.5
20260831081037 55 0 0.0 0.0 0.00 0.00 0.00 81 1014.5
20260831080541 56 0 0.0 0.0 0.00 0.00 0.00 81 1014.6
20260831080105 56 0 0.0 0.0 0.00 0.00 0.00 82 1014.5
20260831075539 56 0 0.0 0.0 0.00 0.00 0.00 82 1014.6
20260831075040 56 0 0.0 0.0 0.00 0.00 0.00 81 1014.6
20260831074600 56 0 0.0 0.0 0.00 0.00 0.00 81 1014.5
20260831074039 56 0 0.0 0.0 0.00 0.00 0.00 81 1014.6
20260831073543 56 0 0.0 0.0 0.00 0.00 0.00 81 1014.7
20260831073114 57 0 0.0 0.0 0.00 0.00 0.00 80 1014.7
20260831072539 57 0 0.0 0.0 0.00 0.00 0.00 80 1014.8
20260831072038 57 0 0.0 0.0 0.00 0.00 0.00 80 1014.9
20260831071552 57 0 0.0 0.0 0.00 0.00 0.00 81 1014.9
20260831071039 57 0 0.0 0.0 0.00 0.00 0.00 80 1014.9
20260831070539 57 0 0.0 0.0 0.00 0.00 0.00 80 1015.0
20260831070137 57 0 0.0 0.0 0.00 0.00 0.00 80 1015.1
20260831065539 58 0 0.0 0.0 0.00 0.00 0.00 80 1015.1
20260831065039 58 0 0.0 0.0 0.00 0.00 0.00 80 1015.2
20260831064620 58 0 0.0 0.0 0.00 0.00 0.00 80 1015.2
20260831064039 58 0 0.0 0.0 0.00 0.00 0.00 79 1015.2
20260831063537 58 0 0.0 0.0 0.00 0.00 0.00 79 1015.4
20260831063100 58 0 0.0 0.0 0.00 0.00 0.00 79 1015.3
20260831062539 58 0 0.0 0.0 0.00 0.00 0.00 79 1015.3
20260831062039 58 0 0.0 0.0 0.00 0.00 0.00 79 1015.3
20260831061554 58 0 0.0 0.0 0.00 0.00 0.00 78 1015.3
20260831061040 58 0 0.0 0.0 0.00 0.00 0.00 78 1015.4
20260831060540 59 0 0.0 0.0 0.00 0.00 0.00 78 1015.3
20260831060112 59 0 0.0 0.0 0.00 0.00 0.00 78 1015.5
20260831055541 59 0 0.0 0.0 0.00 0.00 0.00 77 1015.5
20260831055041 59 0 0.0 0.0 0.00 0.00 0.00 77 1015.5
20260831054559 59 0 0.0 0.0 0.00 0.00 0.00 77 1015.5
20260831054039 59 0 0.0 0.0 0.00 0.00 0.00 76 1015.5
20260831053543 59 0 0.0 0.0 0.00 0.00 0.00 76 1015.7
20260831053108 59 0 0.0 0.0 0.00 0.00 0.00 76 1015.7
20260831052540 60 0 0.0 0.0 0.00 0.00 0.00 75 1015.6
20260831052039 60 0 0.0 0.0 0.00 0.00 0.00 75 1015.7
20260831051619 60 0 0.0 0.0 0.00 0.00 0.00 75 1015.8
20260831051037 60 0 0.0 0.0 0.00 0.00 0.00 74 1015.8
20260831050541 60 0 0.0 0.0 0.00 0.00 0.00 74 1015.9
20260831050057 60 0 0.0 0.0 0.00 0.00 0.00 74 1015.9
20260831045542 60 0 0.0 0.0 0.00 0.00 0.00 74 1015.9
20260831045042 61 0 0.0 0.0 0.00 0.00 0.00 74 1015.9
20260831044555 61 0 0.0 0.0 0.00 0.00 0.00 73 1015.9
20260831044042 61 0 0.0 0.0 0.00 0.00 0.00 73 1016.0
20260831043542 61 0 0.0 0.0 0.00 0.00 0.00 73 1016.0
20260831043101 61 0 0.0 0.0 0.00 0.00 0.00 72 1016.0
20260831042540 61 0 0.0 0.0 0.00 0.00 0.00 72 1016.0
20260831042038 62 0 0.0 0.0 0.00 0.00 0.00 71 1016.1
20260831041554 62 0 0.0 0.0 0.00 0.00 0.00 71 1016.1
20260831041040 62 0 0.0 0.0 0.00 0.00 0.00 70 1016.1
20260831040543 62 0 0.0 0.0 0.00 0.00 0.00 70 1016.2
20260831040056 62 0 0.0 0.0 0.00 0.00 0.00 70 1016.2
20260831035541 62 0 0.0 0.0 0.00 0.00 0.00 69 1016.3
20260831035041 63 0 0.0 0.0 0.00 0.00 0.00 69 1016.3
20260831034559 63 0 0.0 0.0 0.00 0.00 0.00 68 1016.2
20260831034044 63 0 0.0 0.0 0.00 0.00 0.00 68 1016.2
20260831033541 63 0 0.0 0.0 0.00 0.00 0.00 67 1016.3
20260831033101 63 0 0.0 0.0 0.00 0.00 0.00 67 1016.3
20260831032540 64 0 0.0 0.0 0.00 0.00 0.00 66 1016.3
20260831032046 64 0 0.0 0.0 0.00 0.00 0.00 66 1016.3
20260831031600 64 0 0.0 0.0 0.00 0.00 0.00 66 1016.3
20260831031040 64 0 0.0 0.0 0.00 0.00 0.00 65 1016.3
20260831030540 65 0 0.0 0.0 0.00 0.00 0.00 64 1016.4
20260831030057 65 0 0.0 0.0 0.00 0.00 0.00 64 1016.3
20260831025542 65 0 0.0 0.0 0.00 0.00 0.00 64 1016.3
20260831025043 65 0 0.0 0.0 0.00 0.00 0.00 63 1016.4
20260831024604 65 0 0.0 0.0 0.00 0.00 0.00 63 1016.4
20260831024041 66 0 0.0 0.0 0.00 0.00 0.00 63 1016.4
20260831023545 66 0 0.0 0.0 0.00 0.00 0.00 63 1016.4
20260831023058 66 0 0.0 0.0 0.00 0.00 0.00 62 1016.5
20260831022543 66 0 0.0 0.0 0.00 0.00 0.00 62 1016.4
20260831022042 66 0 0.0 1.0 0.00 0.00 0.00 62 1016.5
20260831021600 66 0 0.0 2.0 0.00 0.00 0.00 61 1016.5
20260831021042 67 0 0.0 2.0 0.00 0.00 0.00 61 1016.6
20260831020541 67 0 0.0 2.0 0.00 0.00 0.00 61 1016.5
20260831020057 67 51 0.0 2.0 0.00 0.00 0.00 61 1016.6
20260831015544 67 51 0.0 2.0 0.00 0.00 0.00 60 1016.6
20260831015041 67 51 0.0 2.0 0.00 0.00 0.00 59 1016.6
20260831014553 67 51 0.0 2.0 0.00 0.00 0.00 59 1016.6
20260831014041 67 51 0.0 2.0 0.00 0.00 0.00 59 1016.7
20260831013538 67 51 0.0 2.0 0.00 0.00 0.00 59 1016.7
20260831013102 68 51 0.0 2.0 0.00 0.00 0.00 58 1016.8
20260831012542 68 0 0.0 2.0 0.00 0.00 0.00 58 1016.8
20260831012042 68 51 0.0 2.0 0.00 0.00 0.00 58 1016.8
20260831011556 68 51 0.0 2.0 0.00 0.00 0.00 57 1016.9
20260831011041 68 51 0.0 2.0 0.00 0.00 0.00 57 1016.9
20260831010542 68 51 0.0 2.0 0.00 0.00 0.00 56 1017.1
20260831010132 68 0 0.0 3.0 0.00 0.00 0.00 56 1017.1
20260831005538 68 50 1.0 3.0 0.00 0.00 0.00 56 1017.1
20260831005038 69 50 1.0 3.0 0.00 0.00 0.00 55 1017.2
20260831004557 69 50 1.0 4.0 0.00 0.00 0.00 54 1017.2
20260831004041 69 51 0.0 5.0 0.00 0.00 0.00 54 1017.2
20260831003542 69 50 2.0 5.0 0.00 0.00 0.00 54 1017.2
20260831003110 69 46 0.0 3.0 0.00 0.00 0.00 54 1017.3
20260831002543 69 46 1.0 4.0 0.00 0.00 0.00 54 1017.3
20260831002045 69 47 0.0 4.0 0.00 0.00 0.00 53 1017.3
20260831001610 70 47 1.0 4.0 0.00 0.00 0.00 52 1017.3
20260831001041 70 98 0.0 4.0 0.00 0.00 0.00 52 1017.3
20260831000539 70 36 1.0 4.0 0.00 0.00 0.00 51 1017.3
20260831000100 70 78 0.0 3.0 0.00 0.00 0.00 52 1017.4
20260830235539 71 105 1.0 7.0 0.00 0.00 0.00 51 1017.3
20260830235041 71 38 1.0 9.0 0.00 0.00 0.00 51 1017.3
20260830234557 71 78 2.0 9.0 0.00 0.00 0.00 50 1017.5
20260830234039 72 38 1.0 9.0 0.00 0.00 0.00 49 1017.4
20260830233541 72 0 0.0 4.0 0.00 0.00 0.00 49 1017.6
20260830233104 73 53 2.0 4.0 0.00 0.00 0.00 49 1017.7
20260830232542 73 99 1.0 4.0 0.00 0.00 0.00 49 1017.7
20260830232040 74 0 1.0 4.0 0.00 0.00 0.00 46 1017.8
20260830231603 75 5 1.0 4.0 0.00 0.00 0.00 47 1017.7
20260830231041 76 0 1.0 4.0 0.00 0.00 0.00 45 1017.8
20260830230539 77 279 1.0 6.0 0.00 0.00 0.00 42 1017.9
20260830230100 78 311 1.0 6.0 0.00 0.00 0.00 41 1018.0
20260830225538 78 71 2.0 6.0 0.00 0.00 0.00 43 1018.0
20260830225038 78 58 3.0 6.0 0.00 0.00 0.00 44 1018.1
20260830224609 78 67 1.0 4.0 0.00 0.00 0.00 43 1018.3
20260830224043 77 32 1.0 3.0 0.00 0.00 0.00 45 1018.3
20260830223540 76 46 1.0 6.0 0.00 0.00 0.00 48 1018.5
20260830223104 75 0 2.0 8.0 0.00 0.00 0.00 46 1018.5
20260830222540 75 63 3.0 8.0 0.00 0.00 0.00 47 1018.6
20260830222039 74 51 1.0 5.0 0.00 0.00 0.00 48 1018.6
20260830221600 74 360 1.0 5.0 0.00 0.00 0.00 46 1018.7
20260830221040 74 316 2.0 5.0 0.00 0.00 0.00 49 1018.8
20260830220541 73 330 2.0 6.0 0.00 0.00 0.00 50 1018.7
20260830220121 73 53 2.0 6.0 0.00 0.00 0.00 48 1018.9
20260830215542 73 265 1.0 7.0 0.00 0.00 0.00 49 1018.9
20260830215040 72 271 2.0 7.0 0.00 0.00 0.00 50 1019.0
20260830214601 72 304 1.0 7.0 0.00 0.00 0.00 47 1019.1
20260830214039 73 292 2.0 5.0 0.00 0.00 0.00 47 1019.2
20260830213539 73 47 2.0 5.0 0.00 0.00 0.00 49 1019.3
20260830213056 74 268 2.0 8.0 0.00 0.00 0.00 47 1019.3
20260830212540 74 65 3.0 8.0 0.00 0.00 0.00 47 1019.3
20260830212040 74 70 2.0 6.0 0.00 0.00 0.00 46 1019.4
20260830211559 75 30 2.0 4.0 0.00 0.00 0.00 47 1019.4
20260830211039 75 41 2.0 4.0 0.00 0.00 0.00 46 1019.5
20260830210539 75 121 1.0 4.0 0.00 0.00 0.00 46 1019.5
20260830210056 75 228 2.0 5.0 0.00 0.00 0.00 47 1019.5
20260830205539 75 57 1.0 6.0 0.00 0.00 0.00 49 1019.5
20260830205038 74 205 3.0 7.0 0.00 0.00 0.00 46 1019.5
20260830204551 75 172 1.0 7.0 0.00 0.00 0.00 45 1019.7
20260830204041 76 63 3.0 6.0 0.00 0.00 0.00 44 1019.7